Stations météo

réclame
Mon MeteoGroup
Soderstjerna, Suède (2667): Température de l'air & dewpoint: 16.10.2018 16:00:00 - 22.10.2018 16:00:00 (CEST)Soderstjerna, Suède (2667): Vitesse du vent & gusts: 16.10.2018 16:00:00 - 22.10.2018 16:00:00 (CEST)Soderstjerna, Suède (2667): Direction du vent: 16.10.2018 16:00:00 - 22.10.2018 16:00:00 (CEST)Soderstjerna, Suède (2667): reduced air pressure: 16.10.2018 16:00:00 - 22.10.2018 16:00:00 (CEST)Soderstjerna, Suède (2667): visibility: 16.10.2018 16:00:00 - 22.10.2018 16:00:00 (CEST)Soderstjerna, Suède (2667): Quantités de précipitations: 16.10.2018 16:00:00 - 22.10.2018 16:00:00 (CEST)
Date & Time tt [°C] td [°C] ff [km/h] ff [knt] fx [km/h] fx [knt] dd ppp [hPa] vv [km] rr [mm]
22.10.2018 16:00:00 12,2 2,6 25 14 47 25 WNW 1020,5 30 0,0
22.10.2018 15:00:00 12,3 2,7 29 16 47 25 WNW 1020,1 29 0,0
22.10.2018 14:00:00 12,5 2,4 22 12 40 21 NW 1020,3 40 0,0
22.10.2018 13:00:00 11,9 2,9 29 16 43 23 WNW 1019,9 35 0,0
22.10.2018 12:00:00 11,8 4,0 32 18 50 27 WNW 1020,0 30 0,0
22.10.2018 11:00:00 11,4 5,7 29 16 43 23 WNW 1020,1 28 0,0
22.10.2018 10:00:00 10,9 6,3 25 14 40 21 WNW 1020,2 30 0,0
22.10.2018 09:00:00 10,6 7,1 18 10 40 21 W 1019,9 26 0,0
22.10.2018 08:00:00 11,5 8,2 18 10 32 18 WNW 1019,2 45 0,0
22.10.2018 07:00:00 12,1 9,7 25 14 36 19 W 1018,5 50 0,0
22.10.2018 06:00:00 11,6 10,8 25 14 43 23 W 1018,1 3,6 0,0
22.10.2018 05:00:00 12,2 10,9 32 18 43 23 WSW 1017,9 4,6 0,0
22.10.2018 04:00:00 12,1 11,2 36 19 50 27 WSW 1018,0 3,4 0,0
22.10.2018 03:00:00 12,2 11,1 36 19 50 27 WSW 1018,6 4,1 0,0
22.10.2018 02:00:00 12,3 11,2 36 19 50 27 WSW 1019,2 4,2 0,0
22.10.2018 01:00:00 12,5 11,2 40 21 50 27 WSW 1019,7 5 0,0
22.10.2018 00:00:00 12,4 11,5 32 18 43 23 WSW 1020,4 4,1 0,0
21.10.2018 23:00:00 12,6 11,3 32 18 43 23 WSW 1021,1 9 0,0
21.10.2018 22:00:00 12,4 11,1 36 19 47 25 SW 1021,2 20 0,0
21.10.2018 21:00:00 12,3 10,9 36 19 43 23 SW 1021,9 26 0,0
21.10.2018 20:00:00 12,0 10,4 36 19 43 23 SW 1022,3 25 0,0
21.10.2018 19:00:00 11,9 10,1 32 18 40 21 SW 1022,9 25 0,0
21.10.2018 18:00:00 11,9 10,0 29 16 40 21 SW 1023,0 26 0,0
21.10.2018 17:00:00 11,9 9,5 29 16 36 19 SW 1023,3 30 0,0
21.10.2018 16:00:00 12,1 8,8 25 14 32 18 WSW 1024,1 30 0,0
21.10.2018 15:00:00 12,1 8,4 25 14 32 18 WSW 1024,5 40 0,0
21.10.2018 14:00:00 11,9 8,4 25 14 32 18 WSW 1025,0 35 0,0
21.10.2018 13:00:00 11,5 9,1 22 12 29 16 W 1025,7 29 0,0
21.10.2018 12:00:00 11,0 9,3 22 12 25 14 W 1026,2 20 0,0
21.10.2018 11:00:00 8,2 7,6 4 2 7 4 W 1026,2 30 0,0
21.10.2018 10:00:00 6,7 6,3 4 2 4 2 W 1026,5 35 0,0
21.10.2018 09:00:00 5,4 5,0 4 2 7 4 WNW 1026,5 40 0,0
21.10.2018 08:00:00 4,7 4,3 4 2 11 6 WNW 1026,3 11 0,0
21.10.2018 07:00:00 5,3 4,9 7 4 14 8 W 1026,4 0,2 0,0
21.10.2018 06:00:00 5,8 5,2 7 4 11 6 WNW 1026,2 22 0,0
21.10.2018 05:00:00 6,2 5,6 4 2 7 4 W 1026,1 23 0,0
21.10.2018 04:00:00 6,3 5,6 4 2 7 4 NNW 1026,2 30 0,0
21.10.2018 03:00:00 6,5 5,8 4 2 7 4 W 1026,0 30 0,0
21.10.2018 02:00:00 7,2 6,3 4 2 7 4 WNW 1026,0 35 0,0
21.10.2018 01:00:00 7,9 6,8 4 2 14 8 NNW 1025,7 45 0,0
21.10.2018 00:00:00 7,8 6,9 7 4 11 6 NW 1025,8 35 0,0
20.10.2018 23:00:00 8,5 7,6 7 4 11 6 NW 1025,6 28 0,0
20.10.2018 22:00:00 9,2 8,1 4 2 11 6 NW 1025,5 30 0,0
20.10.2018 21:00:00 9,4 8,3 7 4 7 4 WNW 1025,1 35 0,0
20.10.2018 20:00:00 10,1 9,2 4 2 14 8 WNW 1024,9 25 0,0
20.10.2018 19:00:00 10,6 9,2 11 6 14 8 WSW 1024,5 25 0,0
20.10.2018 18:00:00 10,6 8,9 11 6 14 8 WSW 1024,4 40 0,0
20.10.2018 17:00:00 10,6 8,4 4 2 14 8 W 1024,1 45 0,0
20.10.2018 16:00:00 10,4 8,2 14 8 22 12 W 1024,0 35 0,0
20.10.2018 15:00:00 10,6 8,0 18 10 22 12 W 1024,1 45 0,0
20.10.2018 14:00:00 10,6 8,2 14 8 18 10 W 1024,1 40 0,0
20.10.2018 13:00:00 10,8 7,3 11 6 14 8 W 1024,1 45 0,0
20.10.2018 12:00:00 10,3 7,4 11 6 14 8 WNW 1024,2 30 0,0
20.10.2018 11:00:00 9,6 7,2 7 4 14 8 WNW 1024,2 35 0,0
20.10.2018 10:00:00 8,5 6,6 7 4 18 10 WNW 1023,9 35 0,0
20.10.2018 09:00:00 8,5 7,0 7 4 14 8 NW 1023,7 35 0,0
20.10.2018 08:00:00 8,2 7,1 4 2 14 8 WNW 1023,4 28 0,0
20.10.2018 07:00:00 8,5 7,4 11 6 14 8 W 1023,2 40 0,0
20.10.2018 06:00:00 7,6 6,7 11 6 14 8 W 1023,2 35 0,0
20.10.2018 05:00:00 6,9 6,2 7 4 14 8 W 1023,3 28 0,0
20.10.2018 04:00:00 6,8 5,4 7 4 14 8 WNW 1023,5 30 0,0
20.10.2018 03:00:00 7,3 5,9 7 4 11 6 WNW 1023,4 35 0,0
20.10.2018 02:00:00 7,5 6,0 4 2 22 12 WNW 1023,5 45 0,0
20.10.2018 01:00:00 7,4 5,9 4 2 11 6 WNW 1023,5 45 0,0
20.10.2018 00:00:00 7,3 5,9 4 2 7 4 WNW 1023,7 40 0,0
19.10.2018 23:00:00 7,5 6,0 4 2 7 4 NNW 1023,9 45 0,0
19.10.2018 22:00:00 8,9 7,0 7 4 11 6 WNW 1024,2 45 0,0
19.10.2018 21:00:00 9,2 7,6 4 2 7 4 W 1024,0 45 0,0
19.10.2018 20:00:00 9,1 7,6 4 2 7 4 W 1023,8 45 0,0
19.10.2018 19:00:00 9,7 7,8 7 4 11 6 WSW 1023,7 45 0,0
19.10.2018 18:00:00 10,3 8,1 11 6 14 8 WSW 1023,8 50 0,0
19.10.2018 17:00:00 11,1 7,8 11 6 14 8 WSW 1024,1 45 0,0
19.10.2018 16:00:00 11,4 6,5 11 6 14 8 SW 1024,3 45 0,0
19.10.2018 15:00:00 11,9 6,0 7 4 11 6 SSW 1024,6 45 0,0
19.10.2018 14:00:00 11,1 6,0 7 4 7 4 SSW 1025,0 45 0,0
19.10.2018 13:00:00 10,4 6,0 4 2 4 2 SSW 1025,2 40 0,0
19.10.2018 12:00:00 9,5 4,7 4 2 4 2 SW 1025,4 45 0,0
19.10.2018 11:00:00 8,5 3,9 0 0 4 2 N 1025,4 45 0,0
19.10.2018 10:00:00 7,4 3,1 0 0 4 2 N 1025,2 40 0,0
19.10.2018 09:00:00 6,0 2,6 0 0 4 2 N 1024,9 45 0,0
19.10.2018 08:00:00 4,7 2,1 0 0 4 2 N 1024,5 50 0,0
19.10.2018 07:00:00 4,6 2,0 0 0 7 4 N 1024,3 50 0,0
19.10.2018 06:00:00 5,5 2,5 0 0 7 4 N 1024,1 45 0,0
19.10.2018 05:00:00 5,8 2,3 4 2 7 4 NNW 1024,1 50 0,0
19.10.2018 04:00:00 6,4 2,8 4 2 7 4 NNW 1023,9 50 0,0
19.10.2018 03:00:00 6,0 2,8 0 0 11 6 N 1023,9 50 0,0
19.10.2018 02:00:00 7,2 3,3 0 0 7 4 N 1023,8 50 0,0
19.10.2018 01:00:00 7,3 3,3 0 0 7 4 N 1023,9 50 0,0
19.10.2018 00:00:00 8,2 3,8 4 2 11 6 N 1023,5 50 0,0
18.10.2018 23:00:00 8,9 4,1 4 2 11 6 N 1023,2 50 0,0
18.10.2018 22:00:00 9,7 5,3 4 2 14 8 N 1022,8 50 0,0
18.10.2018 21:00:00 10,7 6,1 7 4 18 10 NNW 1022,3 45 0,0
18.10.2018 20:00:00 11,7 6,8 11 6 14 8 NNW 1021,6 45 0,0
18.10.2018 19:00:00 13,2 7,4 7 4 18 10 NW 1021,3 45 0,0
18.10.2018 18:00:00 14,6 7,6 11 6 22 12 NW 1020,4 45 0,0
18.10.2018 17:00:00 16,0 8,5 11 6 22 12 NW 1019,7 45 0,0
18.10.2018 16:00:00 16,8 7,2 11 6 18 10 NNW 1019,2 40 0,0
18.10.2018 15:00:00 16,6 8,3 11 6 14 8 NNW 1019,0 40 0,0
18.10.2018 14:00:00 15,0 13,0 7 4 18 10 NNW 1019,3 17 0,0
18.10.2018 13:00:00 12,7 12,4 7 4 11 6 WNW 1019,4 4,6 0,0
18.10.2018 12:00:00 11,6 11,3 7 4 11 6 W 1019,3 2,9 0,0
18.10.2018 11:00:00 11,4 11,1 7 4 11 6 NW 1019,3 5 0,0
18.10.2018 10:00:00 10,1 9,8 7 4 14 8 WNW 1019,1 1,3 0,0
18.10.2018 09:00:00 9,0 8,7 0 0 11 6 N 1018,7 1,8 0,0
18.10.2018 08:00:00 8,3 8,0 7 4 11 6 WNW 1018,5 8 0,0
18.10.2018 07:00:00 8,2 7,9 0 0 4 2 N 1018,3 - 0,0
18.10.2018 06:00:00 8,3 8,0 0 0 4 2 N 1018,5 0,2 0,0
18.10.2018 05:00:00 8,3 7,9 0 0 4 2 N 1018,7 2,0 0,0
18.10.2018 04:00:00 8,2 7,8 0 0 4 2 N 1018,8 0,1 0,0
18.10.2018 03:00:00 8,8 8,3 0 0 4 2 N 1019,0 0,1 0,0
18.10.2018 02:00:00 9,4 8,8 0 0 0 0 N 1019,3 2,1 0,0
18.10.2018 01:00:00 10,2 9,6 0 0 4 2 N 1019,7 2,3 0,0
18.10.2018 00:00:00 10,3 9,7 4 2 4 2 E 1019,8 2,9 0,0
17.10.2018 23:00:00 10,5 9,9 4 2 7 4 NE 1020,2 4,4 0,0
17.10.2018 22:00:00 10,8 10,2 4 2 7 4 NNE 1020,2 4,7 0,0
17.10.2018 21:00:00 11,0 10,2 4 2 7 4 NE 1020,0 4,0 0,0
17.10.2018 20:00:00 11,0 10,1 0 0 4 2 N 1020,0 2,9 0,0
17.10.2018 19:00:00 12,3 11,0 4 2 7 4 W 1020,1 7 0,0
17.10.2018 18:00:00 12,3 10,9 4 2 7 4 SSW 1019,8 8 0,0
17.10.2018 17:00:00 13,6 11,1 7 4 11 6 S 1019,9 9 0,0
17.10.2018 16:00:00 13,8 11,7 7 4 11 6 S 1020,0 8 0,0
17.10.2018 15:00:00 13,9 12,1 11 6 11 6 SSW 1020,3 7 0,0
17.10.2018 14:00:00 14,1 12,0 11 6 11 6 SSW 1020,1 9 0,0
17.10.2018 13:00:00 14,3 12,7 0 0 0 0 N 1020,3 13 0,0
17.10.2018 12:00:00 12,7 12,1 0 0 7 4 N 1020,6 15 0,0
17.10.2018 11:00:00 12,8 12,5 4 2 7 4 N 1020,8 15 0,0
17.10.2018 10:00:00 10,2 9,9 0 0 4 2 N 1020,7 15 0,0
17.10.2018 09:00:00 9,4 9,1 4 2 4 2 SE 1020,4 8 0,0
17.10.2018 08:00:00 8,8 8,5 0 0 7 4 N 1020,1 0,5 0,0
17.10.2018 07:00:00 9,1 8,8 4 2 4 2 NNW 1019,8 0,1 0,0
17.10.2018 06:00:00 9,0 8,7 0 0 7 4 N 1019,7 1,2 0,0
17.10.2018 05:00:00 8,8 8,5 4 2 7 4 NNE 1019,6 0,9 0,0
17.10.2018 04:00:00 8,8 8,5 4 2 7 4 ENE 1019,5 0,2 0,0
17.10.2018 03:00:00 9,1 8,8 0 0 7 4 N 1019,7 0,2 0,0
17.10.2018 02:00:00 9,1 8,6 4 2 7 4 NE 1019,5 0,1 0,0
17.10.2018 01:00:00 9,3 8,8 4 2 7 4 NE 1019,6 - 0,0
17.10.2018 00:00:00 10,2 9,6 7 4 7 4 NE 1019,7 2,5 0,0
16.10.2018 23:00:00 10,6 10,0 4 2 7 4 NE 1019,8 4,9 0,0
16.10.2018 22:00:00 11,2 10,6 4 2 7 4 NE 1020,0 5 0,0
16.10.2018 21:00:00 11,8 11,0 4 2 7 4 ENE 1020,0 5 0,0
16.10.2018 20:00:00 11,9 11,1 0 0 7 4 N 1019,7 7 0,0
16.10.2018 19:00:00 12,0 10,9 7 4 14 8 SSE 1019,4 10 0,0
16.10.2018 18:00:00 12,7 11,3 11 6 14 8 S 1019,0 11 0,0
16.10.2018 17:00:00 14,3 12,3 4 2 7 4 SSW 1018,9 16 0,0
16.10.2018 16:00:00 13,5 11,9 7 4 7 4 S 1019,0 12 0,0

tt = Température de l'air
td = dewpoint
ff = Vitesse du vent
fx = gusts
dd = Direction du vent
ppp = reduced air pressure
vv = visibility
rr = Quantités de précipitations

stations d'obs. à proximité